Regional Weather Roundup
Issued by NWS

Home | Current Version | Previous Version | Graphics & Text | Print | Product List | Glossary Off
Versions: 1 2 3 4 5 6 7 8 9 10 11 12 13 14 15 16 17 18 19 20 21 22 23 24 25 26 27 28 29 30 31 32 33 34 35 36 37 38 39 40 41 42 43 44 45 46 47 48 49 50

000
ASUS43 KTOP 252359
RWRKS

WEATHER ROUNDUP FOR KANSAS
NATIONAL WEATHER SERVICE GOODLAND KS
600 PM CST SUN JAN 25 2015

NOTE:  "FAIR" INDICATES FEW OR NO CLOUDS BELOW 12,000 FEET WITH NO
SIGNIFICANT WEATHER AND/OR OBSTRUCTIONS TO VISIBILITY.

KSZ001>006-013>018-027>032-041>047-260100-
NORTHWEST KANSAS

CITY           SKY/WX    TMP DP  RH WIND       PRES   REMARKS
GOODLAND       CLEAR     46  31  55 N8        30.11R
6HR MIN TEMP:  46; 6HR MAX TEMP:  56;

HAYS           CLEAR     45  21  39 N6        30.10F
HILL CITY      CLEAR     42  22  44 N5        30.09F
6HR MIN TEMP:  42; 6HR MAX TEMP:  53;

RUSSELL        CLEAR     41  25  53 N9        30.09R
6HR MIN TEMP:  41; 6HR MAX TEMP:  52;

$$

KSZ061>065-074>080-084>089-260100-
SOUTHWEST KANSAS

CITY           SKY/WX    TMP DP  RH WIND       PRES   REMARKS
DODGE CITY     CLEAR     45  19  35 N8        30.11R
6HR MIN TEMP:  45; 6HR MAX TEMP:  56;

ELKHART          N/A     55  30  38 NW7         N/A
GARDEN CITY    CLEAR     48  20  32 N8        30.11R
6HR MIN TEMP:  48; 6HR MAX TEMP:  58;

GREAT BEND     CLEAR     45  25  45 N10       30.11S
LIBERAL        CLEAR     54  25  32 NW7       30.15R
$$

KSZ066>073-081>083-090>101-260100-
SOUTHEAST KANSAS

CITY           SKY/WX    TMP DP  RH WIND       PRES   REMARKS
CHANUTE        CLOUDY    42  32  67 N18G29    30.08R
6HR MIN TEMP:  42; 6HR MAX TEMP:  45;

COFFEYVILLE    CLOUDY    45  31  58 NW17G25   30.08R
6HR MIN TEMP:  45; 6HR MAX TEMP:  49;

HUTCHINSON     CLEAR     46  27  47 N10       30.09R
6HR MIN TEMP:  46; 6HR MAX TEMP:  53;

MEDICINE LODGE   N/A     48  26  42 N9        30.10R
NEWTON         PTCLDY    43  27  52 N18       30.11R
PARSONS        CLOUDY    44  32  62 N22G31    30.08R
6HR MIN TEMP:  44; 6HR MAX TEMP:  47;

WICHITA INTL   PTCLDY    47  28  47 N15       30.09R
6HR MIN TEMP:  47; 6HR MAX TEMP:  53;

WICHITA JABRA  CLEAR     43  30  60 N16       30.09R
6HR MIN TEMP:  43; 6HR MAX TEMP:  50;

WINFIELD       CLEAR     45  30  55 N14       30.10R
6HR MIN TEMP:  45; 6HR MAX TEMP:  53;

$$

KSZ007>012-019>026-033>040-048>060-102>105-260100-
NORTHEAST KANSAS

CITY           SKY/WX    TMP DP  RH WIND       PRES   REMARKS
CONCORDIA      CLOUDY    41  31  67 N8        30.10R
6HR MIN TEMP:  41; 6HR MAX TEMP:  44;

EMPORIA        CLOUDY    40  30  67 N12       30.08R WCI  33
6HR MIN TEMP:  40; 6HR MAX TEMP:  46;

LAWRENCE       CLOUDY    39  32  76 NW18      30.08R WCI  30
6HR MIN TEMP:  38; 6HR MAX TEMP:  39;

MANHATTAN      CLOUDY    40  30  67 N8        30.11R
6HR MIN TEMP:  40; 6HR MAX TEMP:  45;

OLATHE IND     CLOUDY    38  32  79 N20G28    30.06R WCI  28
6HR MIN TEMP:  37; 6HR MAX TEMP:  38;

OLATHE EXE     CLOUDY    39  31  72 N18G29    30.04R WCI  30
6HR MIN TEMP:  38; 6HR MAX TEMP:  39;

SALINA         PTCLDY    44  30  57 N13       30.11R
6HR MIN TEMP:  44; 6HR MAX TEMP:  51;

TOPEKA BILLARD CLOUDY    40  31  70 N8        30.10R
6HR MIN TEMP:  40; 6HR MAX TEMP:  41;

TOPEKA FORBES  CLOUDY    42  30  62 N14G25    30.08R
6HR MIN TEMP:  41; 6HR MAX TEMP:  42;

$$


USA.gov is the U.S. government's official web portal to all federal, state and local government web resources and services.